This demonstration page uses our WeatherBlox Daily Observations layout. Learn more.

Left ArrowRight Arrow

34.74481, -87.66753

Hourly Observations for July 18, 2016

Temp ( °F °C ) Dew Point ( °F °C ) Humidity (%) Winds ( mph kmh ) Pressure ( in mb ) Visibility ( mi km ) Precip ( " mm )
12:53 am 00:53 Clear 77 25 72 22.2 85 85 S 6 9 30.16 1021 10 16 0.00 0.00
1:53 am 01:53 Clear 76 24.4 72 22.2 88 88 Calm 30.16 1021 10 16 0.00 0.00
2:53 am 02:53 Clear 75 23.9 72 22.2 90 90 Calm 30.16 1022 10 16 0.00 0.00
3:53 am 03:53 Clear 74 23.3 71 21.7 91 91 Calm 30.17 1022 9 14 0.00 0.00
4:53 am 04:53 Clear 73 22.8 70 21.1 90 90 Calm 30.17 1022 9 14 0.00 0.00
5:53 am 05:53 Sunny 73 22.8 70 21.1 90 90 Calm 30.20 1023 7 11 0.00 0.00
6:53 am 06:53 Sunny 76 24.4 72 22.2 88 88 Calm 30.22 1023 8 13 0.00 0.00
7:53 am 07:53 Mostly Sunny 80 26.7 73 22.8 79 79 Calm 30.24 1024 10 16 0.00 0.00
8:53 am 08:53 Mostly Cloudy 80 26.7 73 22.8 79 79 Calm 30.25 1024 10 16 0.00 0.00
9:53 am 09:53 Partly Cloudy 83 28.3 74 23.3 74 74 Calm 30.25 1024 10 16 0.00 0.00
10:53 am 10:53 Sunny 88 31.1 74 23.3 63 63 VRB 3 6 30.24 1024 10 16 0.00 0.00
11:53 am 11:53 Partly Cloudy 87 30.6 73 22.8 63 63 S 5 7 30.24 1024 10 16 0.00 0.00
12:53 pm 12:53 Sunny 91 32.8 72 22.2 54 54 SSE 3 6 30.22 1024 10 16 0.00 0.00
1:53 pm 13:53 Mostly Sunny 93 33.9 72 22.2 50 50 S 6 9 30.20 1023 10 16 0.00 0.00
2:53 pm 14:53 Partly Cloudy 88 31.1 76 24.4 68 68 W 8 13 30.18 1022 10 16 0.00 0.00
3:16 pm 15:16 Partly Cloudy with Nearby Thunderstorms 90 32.2 74 23.3 59 59 VRB 7 11 30.18 1022 10 16 0.00 0.00
3:51 pm 15:51 Mostly Sunny 82 28 72 22 70 70 NNW 7 11 30.18 1022 10 16 0.00 0.00
3:53 pm 15:53 Mostly Sunny 83 28.3 71 21.7 67 67 NNW 7 11 30.18 1022 10 16 0.00 0.00
4:53 pm 16:53 Sunny 90 32.2 73 22.8 58 58 NE 3 6 30.16 1021 10 16 0.00 0.00
5:53 pm 17:53 Sunny 91 32.8 70 21.1 50 50 Calm 30.16 1021 10 16 0.00 0.00
6:53 pm 18:53 Sunny 90 32.2 74 23.3 59 59 Calm 30.16 1021 10 16 0.00 0.00
7:53 pm 19:53 Sunny 84 28.9 75 23.9 74 74 Calm 30.15 1021 10 16 0.00 0.00
8:53 pm 20:53 Clear 81 27.2 74 23.3 79 79 Calm 30.16 1021 10 16 0.00 0.00
9:53 pm 21:53 Clear 78 25.6 74 23.3 87 87 Calm 30.18 1022 10 16 0.00 0.00
10:53 pm 22:53 Clear 78 25.6 74 23.3 87 87 Calm 30.19 1022 10 16 0.00 0.00
11:53 pm 23:53 Clear 77 25 73 22.8 88 88 Calm 30.18 1022 10 16 0.00 0.00

Powered by AerisWeather